Weather History for KLGA - March, 2013

Change the Weather History Date:

Saturday, March 30, 2013

  Actual Average Record
Temperature  
Mean Temperature 50 °F 47 °F  
Max Temperature 58 °F 55 °F 79 °F (1998)
Min Temperature 41 °F 39 °F 23 °F (1970)
Degree Days  
Heating Degree Days 15 18  
Month to date heating degree days 735 688  
Since 1 July heating degree days 3930 4117  
Cooling Degree Days 0 0  
Month to date cooling degree days 0 0  
Year to date cooling degree days 0 0  
Moisture  
Dew Point 26 °F    
Average Humidity 40    
Maximum Humidity 60    
Minimum Humidity 19    
Precipitation  
Precipitation 0.00 in 0.13 in 2.65 in (1951)
Month to date precipitation 2.29 3.83  
Year to date precipitation 8.13 9.76  
Snow  
Snow 0.00 in 0.00 in T in (2003)
Month to date snowfall 6.1 4.3  
Since 1 July snowfall 22.2 26.3  
Snow Depth 0.00 in    
Sea Level Pressure  
Sea Level Pressure 30.12 in    
Wind  
Wind Speed 8 mph (WNW)    
Max Wind Speed 17 mph    
Max Gust Speed 20 mph    
Visibility 10 miles    
Events      
T = Trace of Precipitation, MM = Missing Value Source: NWS Daily Summary

Daily Weather History Graph

Daily Weather History Graph

Search for Another Location

Airport or City:

Trip Planner

Search our weather history database for the weather conditions in past years. The results will help you decide how hot, cold, wet, or windy it might be!

Date:

Astronomy

Mar. 30, 2013 Rise Set
Actual Time 6:41 AM EDT 7:18 PM EDT
Civil Twilight 6:14 AM EDT 7:46 PM EDT
Nautical Twilight 5:41 AM EDT 8:18 PM EDT
Astronomical Twilight 5:08 AM EDT 8:52 PM EDT
Moon 11:23 PM EDT (3/30) 8:33 AM EDT (3/30)
Length of Visible Light 13h 31m
Length of Day
12h 36m
Waning Gibbous, 86% of the Moon is Illuminated
Mar 30
Waning Gibbous
Apr 3
Last Quarter
Apr 10
New
Apr 18
First Quarter
Apr 25
Full

Hourly Weather History & Observations

Time (EDT) Temp. Windchill Dew Point Humidity Pressure Visibility Wind Dir Wind Speed Gust Speed Precip Events Conditions
12:51 AM 44.6 °F 40.2 °F 28.4 °F 53% 30.13 in 10.0 mi NW 8.1 mph - N/A   Partly Cloudy
1:51 AM 44.1 °F 39.5 °F 27.0 °F 51% 30.13 in 10.0 mi WNW 8.1 mph - N/A   Partly Cloudy
2:51 AM 44.6 °F 40.7 °F 28.4 °F 53% 30.12 in 10.0 mi WNW 6.9 mph - N/A   Clear
3:51 AM 43.0 °F 36.0 °F 28.9 °F 58% 30.12 in 10.0 mi NW 13.8 mph - N/A   Clear
4:51 AM 42.8 °F 37.0 °F 28.4 °F 57% 30.13 in 10.0 mi WNW 10.4 mph - N/A   Partly Cloudy
5:51 AM 42.1 °F 35.7 °F 28.9 °F 60% 30.13 in 10.0 mi WNW 11.5 mph - N/A   Clear
6:51 AM 42.1 °F 35.2 °F 28.9 °F 60% 30.14 in 10.0 mi WNW 12.7 mph - N/A   Scattered Clouds
7:51 AM 42.8 °F 36.6 °F 28.4 °F 57% 30.16 in 10.0 mi NW 11.5 mph - N/A   Partly Cloudy
8:51 AM 44.1 °F 38.6 °F 28.9 °F 55% 30.16 in 10.0 mi NW 10.4 mph - N/A   Partly Cloudy
9:51 AM 46.9 °F - 28.9 °F 50% 30.16 in 10.0 mi NW 9.2 mph - N/A   Partly Cloudy
10:51 AM 50.0 °F - 26.1 °F 39% 30.16 in 10.0 mi WNW 4.6 mph - N/A   Scattered Clouds
11:51 AM 51.8 °F - 23.0 °F 33% 30.14 in 10.0 mi West 6.9 mph - N/A   Scattered Clouds
12:51 PM 53.6 °F - 21.2 °F 28% 30.13 in 10.0 mi NW 8.1 mph 17.3 mph N/A   Scattered Clouds
1:51 PM 54.0 °F - 19.9 °F 26% 30.10 in 10.0 mi North 4.6 mph - N/A   Mostly Cloudy
2:51 PM 55.9 °F - 19.0 °F 24% 30.08 in 10.0 mi WNW 12.7 mph - N/A   Mostly Cloudy
3:51 PM 55.0 °F - 17.1 °F 23% 30.07 in 10.0 mi NW 10.4 mph - N/A   Mostly Cloudy
4:51 PM 55.9 °F - 18.0 °F 23% 30.06 in 10.0 mi WNW 9.2 mph - N/A   Mostly Cloudy
5:51 PM 57.0 °F - 15.1 °F 19% 30.07 in 10.0 mi Calm Calm - N/A   Scattered Clouds
6:51 PM 53.6 °F - 26.6 °F 35% 30.07 in 10.0 mi South 11.5 mph - N/A   Scattered Clouds
7:51 PM 50.0 °F - 28.9 °F 44% 30.09 in 10.0 mi South 8.1 mph - N/A   Partly Cloudy
8:51 PM 50.0 °F - 30.2 °F 47% 30.10 in 10.0 mi SSE 4.6 mph - N/A   Clear
9:51 PM 48.9 °F - 32.0 °F 52% 30.11 in 10.0 mi SE 3.5 mph - N/A   Clear
10:51 PM 48.0 °F - 34.0 °F 58% 30.12 in 10.0 mi Calm Calm - N/A   Clear
11:51 PM 46.9 °F - 34.0 °F 61% 30.12 in 10.0 mi Calm Calm - N/A   Clear